Погода в Шадринске

Хотите узнать прогноз погоды в Шадринске? Тогда Вам сюда: Погода в Шадринске

Поиск расширенной информации на нашем сайте:

Полезная информация:

Новости сайта



02.01.2020
Опубликован Долгосрочный прогноз погоды по городам России и ближнего зарубежья на январь 2020 года.
Карты: Прогноз на январь и февраль 2020 года, Сравнение прогнозируемой аномалии приземной температуры воздуха на январь 2020 года по разным моделям.




Погода в Шадринске - сегодня

Время (UTC), дата Ветер
(°,м/с) 
Видим.   Явления Облачность Т
(°С)
Тd
(°С)
f(%) Тe
(°С)
Pmin
(гПа)
dP
(гПа)
Po
(мм)
O2
(г/м3)
Тmin Tmax R s Состояние
почвы
00 19.01.20 310 (СЗ) 10 км  {ливн. осадки}  ясно 
-8.2 -11.8 75 -8  1022.1  2.8  758  316           
03 19.01.20 230 (ЮЗ) 10 км    ясно 
-14 -16.1 84 -14  1024  1.7  759  324  -14    0.0  25  равномерный
сухой снег
100% 
06 19.01.20 200 (Ю) 10 км    ясно 
-13.5 -15.6 84 -13  1025.6  1.6  760  324  -16         
09 19.01.20 200 (Ю) 10 км    8/3 600 м верхняя 
[Sc|Ci sp]
-8.5 -12.5 73 -8  1025.4  0.1  760  317           
12 19.01.20 060 (СВ) 10 км    10/8 600 м верхняя 
[Sc|Ci ing]
-8.7 -12.3 75 -8  1025.2  -0.1  760  318           
15 19.01.20 080 (В) 4000 м  слаб. снег  10/10 300 м 
[Frnb|Ns]
-10.1 -12.4 83 -13  1024.5  -0.8  760  319    -6.8  0.0     
18 19.01.20 100 (В) 4000 м  слаб. снег  10/10 300 м 
[Frnb|Ns]
-8.7 -10.6 86 -10  1022.6  -1.8  758  317           
21 19.01.20 120 (ЮВ) 2000 м  снег  10/10 300 м 
[Frnb|Ns]
-7.7 -9.6 86 -9  1020.3  -2.2  757  315           
00 20.01.20 110 (В) 2000 м  снег  10/10 300 м 
[Frnb|Ns]
-7.5 -9.2 88 -9  1018  -2.2  755  314           
03 20.01.20 080 (В) 2000 м  снег  10/10 300 м 
[Frnb|Ns]
-7.7 -9.3 88 -9  1015.7  -2.3  753  313  -10.1    30  равномерный
сухой снег
100% 
06 20.01.20 080 (В) 4000 м  слаб. снег  10/10 300 м 
[Frnb|Ns]
-7.3 -9 88 -10  1014.3  -1.3  752  312           
09 20.01.20 070 (В) 4000 м  слаб. снег  10/6 300 м средняя 
[Frnb|As op]
-5.7 -7.7 86 -8  1013.5  -0.8  752  310           
12 20.01.20 050 (СВ) 4000 м  слаб. снег  10/6 300 м средняя 
[Frnb|As trans]
-8.6 -11 83 -10  1014.2  0.6  752  314           
15 20.01.20 050 (СВ) 10 км  {снег}  10/10 600 м 
[Sc]
-9.5 -12.5 79 -11  1014.9  0.6  752  315    -5.7     
18 20.01.20 050 (СВ) 10 км  {снег}  10/10 600 м 
[Sc]
-10.3 -13.2 79 -12  1015.3  0.3  753  316           
21 20.01.20 060 (СВ) 10 км    10/10 600 м 
[Sc]
-11 -13.7 80 -11  1014.9  -0.4  752  317           
00 21.01.20 060 (СВ) 10 км    10/10 600 м 
[Sc]
-11.5 -13.4 86 -13  1015  752  318           
03 21.01.20 090 (В) 10 км    10/10 600 м 
[Sc]
-11.8 -13.7 86 -12  1014.9  0.1  752  318  -11.8      30  равномерный
сухой снег
100% 
06 21.01.20 100 (В) 4000 м  слаб. снег{туман}  10/10 300 м 
[Frnb|Ns]
-11.6 -13.5 86 -14  1014.3  -0.6  752  318  -11.9         
09 21.01.20 100 (В) 10 км  {снег}  10/10 600 м 
[Sc]
-10.5 -12.5 85 -10  1013.5  -0.6  751  316           
12 21.01.20 130 (ЮВ) 10 км  {снег}  10/10 600 м 
[Sc]
-10 -12.1 85 -10  1012.1  -1.3  750  315           
15 21.01.20 140 (ЮВ) 4000 м  слаб. снег  10/10 300 м 
[Frnb|Ns]
-10.3 -12.6 83 -10  1011.1  -1  750  315    -9.8  0.0     
18 21.01.20 150 (ЮВ) 10 км  {снег}  10/10 600 м 
[Sc]
-10.2 -12.5 83 -12  1008.6  -2.5  748  314           
21 21.01.20 130 (ЮВ) 4000 м  слаб. снег  10/10 300 м 
[Frnb|Ns]
-10.5 -12.9 82 -12  1006.3  -2.2  746  314           
00 22.01.20 120 (ЮВ) 10 км  {снег}  10/10 600 м 
[Sc]
-10.1 -12.4 83 -10  1003.5  -2.7  744  312           
Время (UTC), дата Ветер
(°,м/с) 
Видим.   Явления Облачность Т
(°С)
Тd
(°С)
f(%) Тe
(°С)
Pmin
(гПа)
dP
(гПа)
Po
(мм)
O2
(г/м3)
Тmin Tmax R s Состояние
почвы

Для получения пояснительной информации подведите курсор к названию столбца.

ПОГОДА в Шадринске - архив

Всё, что Вы хотите узнать о погоде в Шадринске - удобно и подробно!

Выберите нужную дату (начиная с 1 января 2019* года) и нажмите кнопку "Найти".
Будут отображены архивные сводки погоды по пункту Шадринск, начиная с указанной даты.


Отображать данные в формате CSV (для использования в таблицах Excel)


Внимание! Наш архив погоды предназначен исключительно для личного некоммерческого использования в познавательных целях. Если Вам необходимы официальные справки о состоянии погоды (для производственных, юридических, коммерческих и т.п. целей), обращайтесь в органы Росгидромета.

*Примечание: данная дата относится к архиву по метеостанциям СССР (Россия, СНГ, Балтия).
Архив по метеостанциям Зарубежной Европы и Азии (кроме Китая) хранится 10 дней, по другим регионам земного шара (Китай, Африка, Америка, Австралия, Океания) - 1 день.

Шадринск - район местоположения метеостанции


Название, широта, долгота, высота метеостанции:
Шадринск 56.1°ш. 63.6°д. 89 м над ур. моря [Российская Федерация]

Дополнительная информация

В oтличие oт бoльшинства пoгoдных сайтoв мы публикуем пoдрoбную метеoинфoрмацию в детальнoм прoфессиoнальнoм фoрмате.

Характеристики температуры и влажнoсти вoздуха измеряются на высoте 2 м в тени вдали oт зданий и деревьев.
Скoрoсть ветра измеряется на высoте 10 м (на урoвне рoста челoвека скoрoсть ветра ниже в 1.5-2 раза). Если метеoстанция нахoдится в гoрoде или в лесу, тo скoрoсть ветра занижена на 2-4 м/с пo сравнению с oткрытым местoм. Скoрoсть ветра над акватoриями крупных рек и oзёр, а также на вершинах хoлмoв на 2-5 м/с выше, чем в oбычных услoвиях.
Атмoсфернoе давление в разных тoчках местнoсти мoжет значительнo oтличаться oт давления на метеoстанции, в зависимoсти oт услoвий рельефа (при пoдъёме на 10 м давление пoнижается примернo на 1 мм рт.ст.).